Skip Page Navigation
NASA JPL Caltech
NASA Logo - Jet Propulsion Laboratory + View the NASA Portal
+ Center for Near-Earth Object Studies
JPL Home Earth Solar System Stars & Galaxies Technology
JPL Solar System Dynamics
BODIES ORBITS EPHEMERIDES TOOLS PHYSICAL DATA DISCOVERY FAQ SITE MAP
IMPORTANT: The SSD Announcement email list is now available. Major changes are coming in the near future, including possible hostname and/or URL changes. To be notified of such changes, subscribe to this email list.

Please visit this page for more details.


JPL Small-Body Database Browser
Search: [ help ]  
160737 (2000 RL34)
Classification: Main-belt Asteroid          SPK-ID: 2160737
Ephemeris | Orbit Diagram | Orbital Elements | Mission Design | Physical Parameters | Discovery Circumstances ]

[ show orbit diagram ]
Orbital Elements at Epoch 2458600.5 (2019-Apr-27.0) TDB
Reference: JPL 19 (heliocentric ecliptic J2000)
 Element Value Uncertainty (1-sigma)   Units 
e .152528041224594 5.5114e-08  
a 2.288678180420185 1.2023e-08 au
q 1.939590580567226 1.2733e-07 au
i 5.94512651135162 5.7782e-06 deg
node 239.7349439936469 4.6846e-05 deg
peri 116.7727309249749 5.0444e-05 deg
M 139.4231384669815 1.9399e-05 deg
tp 2458110.712299975641
(2017-Dec-23.21229998)
6.6518e-05 TDB
period 1264.665061678602
3.46
9.965e-06
2.728e-08
d
yr
n .284660350719398 2.243e-09 deg/d
Q 2.637765780273143 1.3856e-08 au
  Orbit Determination Parameters
   # obs. used (total)      629  
   data-arc span      6789 days (18.59 yr)  
   first obs. used      2000-08-04  
   last obs. used      2019-03-07  
   planetary ephem.      DE431  
   SB-pert. ephem.      SB431-N16  
   condition code      0  
   norm. resid. RMS      .55421  
   source      ORB  
   producer      Otto Matic  
   solution date      2019-Jul-13 08:06:23  

Additional Information
 Earth MOID = .943627 au 
 Jupiter MOID = 2.82947 au 
 T_jup = 3.577 
[ show covariance matrix ]

Ephemeris | Orbit Diagram | Orbital Elements | Mission Design | Physical Parameters | Discovery Circumstances ]

Physical Parameter Table
Parameter Symbol Value Units Sigma Reference Notes
absolute magnitude H 16.0   n/a MPO422608  

160737 (2000 RL34)          Discovered 2000-Sep-01 by LINEAR at Socorro
Reference: 20070828/Numbers.arcLast Updated: 2007-08-30
Ephemeris | Orbit Diagram | Orbital Elements | Mission Design | Physical Parameters | Discovery Circumstances ]
ABOUT SSD CREDITS/AWARDS PRIVACY/COPYRIGHT GLOSSARY LINKS
FirstGov
(server date/time)  
NASA Home Page
Site Manager:   Ryan S. Park
Webmaster  Alan B. Chamberlin